Regional Weather Roundup
Issued by NWS

Home | Current Version | Previous Version | Graphics & Text | Print | Product List | Glossary On
Versions: 1 2 3 4 5 6 7 8 9 10 11 12 13 14 15 16 17 18 19 20 21 22 23 24 25 26 27 28 29 30 31 32 33 34 35 36 37 38 39 40 41 42 43 44 45 46 47 48 49 50
000
ASUS44 KMEG 040410
RWRTN
TENNESSEE HOURLY STATE WEATHER ROUNDUP
NATIONAL WEATHER SERVICE MEMPHIS TN
1000 PM CST TUE MAR 03 2015

TNZ002-004-019-021-049-052-054-088>092-040500-
WEST TENNESSEE

CITY           SKY/WX    TMP DP  RH WIND       PRES   REMARKS
MEMPHIS INTL   MOCLDY    62  60  93 S12       29.89F VSB 1/4
NWS MEMPHIS      N/A     61 N/A N/A MISG        N/A
JACKSON        CLOUDY    63  60  90 SW10      29.89S
DYERSBURG      CLOUDY    57  46  67 CALM      29.89S
UNION CITY     CLOUDY    54  54 100 NW12      29.88R VSB 1/4
PARIS          CLOUDY    59  59 100 SW10      29.87F
LEXINGTON      CLOUDY    61  61 100 S9        29.89S
SAVANNAH       CLOUDY    64  64 100 SW12      29.93S
$$

TNZ008-025-027-028-033-062-065-066-040500-
NORTH MIDDLE TENNESSEE

CITY           SKY/WX    TMP DP  RH WIND       PRES   REMARKS
NASHVILLE      CLOUDY    63  61  94 S10       29.90F
CLARKSVILLE    LGT RAIN  62  60  93 SW10      29.86F FOG
SMYRNA         CLOUDY    62  61  97 S9        29.92F
COOKEVILLE     MOCLDY    61  59  94 SW9       29.93S
CROSSVILLE     CLOUDY    57  55  93 S9        29.98S
$$

TNZ061-075-076-078-094-096-097-040500-
SOUTH MIDDLE TENNESSEE

CITY           SKY/WX    TMP DP  RH WIND       PRES   REMARKS
FAYETTEVILLE   CLOUDY    59  59 100 S10         N/A
TULLAHOMA      CLOUDY    59  59 100 S5        29.97F
WINCHESTER     CLOUDY    61  61 100 S8        29.98F
MCMINNVILLE    MOCLDY    63  63 100 SW9       29.95F
COLUMBIA         N/A    N/A N/A N/A S15       29.90F
SHELBYVILLE    CLOUDY    64  63  94 S17       29.94F
$$

TNZ017-018-042-046-047-040500-
NORTHEAST TENNESSEE

CITY           SKY/WX    TMP DP  RH WIND       PRES   REMARKS
TRI CITIES     CLOUDY    46  46 100 CALM      29.99F FOG
ELIZABETHTON   CLOUDY    46  46 100 CALM      29.99F FOG
$$

TNZ012-013-036-069-073-074-040500-
CENTRAL EAST TENNESSEE

CITY           SKY/WX    TMP DP  RH WIND       PRES   REMARKS
KNOXVILLE      CLOUDY    50  49  96 W3        29.99S FOG
OAK RIDGE      CLOUDY    52  51  97 VRB3      30.00F FOG
GATLINBURG     MOCLDY    48  46  93 CALM      29.98S
MORRISTOWN     CLOUDY    46  46 100 CALM      30.00S
$$

TNZ083-085-099-040500-
SOUTHEAST TENNESSEE

CITY           SKY/WX    TMP DP  RH WIND       PRES   REMARKS
CHATTANOOGA    FOG       54  53  97 CALM      30.03F VSB 1
$$

SKY/WX REPORTED AS FAIR MEANS FEW OR NO CLOUDS BELOW
12 THOUSAND FEET.



USA.gov is the U.S. government's official web portal to all federal, state and local government web resources and services.